カタログに戻る

STARLINK-35572

運用中通信VLEO
NORAD 66117·PAYLOAD·🇺🇸 United States

打ち上げ Oct 22, 2025 から Vandenberg Space Force Base

Loading…

次のパス (今後24時間)

TLE

最新Source: CelesTrak SupGP

元期: Sep 15, 2026, 02:53 UTC

1 66117C 25237D   26258.12062500 -.00051263  00000+0 -15146-2 0  2584
2 66117  53.1576 238.7711 0001321  89.1305  28.7361 15.34416298    13

AllMySatでSTARLINK-35572をリアルタイム追跡

Download on the App Store